H1 CPF 2 NER 2024 4 3 9 094 01 glonass131 H2 1301901 9131 39155 2024 4 3 0 0 0 2024 4 6 23 45 0 900 1 1 0 0 0 1 H9 10 0 60403 0.00000 0 -10421949.041 5490471.082 -22565737.083 10 0 60403 900.00000 0 -10548729.930 2665982.910 -23017007.106 10 0 60403 1800.00000 0 -10886530.869 -168643.265 -23018721.416 10 0 60403 2700.00000 0 -11427020.596 -2942979.022 -22571094.885 10 0 60403 3600.00000 0 -12149738.626 -5589473.013 -21683147.124 10 0 60403 4500.00000 0 -13022961.562 -8046026.810 -20372502.406 10 0 60403 5400.00000 0 -14005063.402 -10258334.167 -18665018.955 10 0 60403 6300.00000 0 -15046310.114 -12181886.974 -16594256.834 10 0 60403 7200.00000 0 -16091010.514 -13783565.953 -14200796.842 10 0 60403 8100.00000 0 -17079930.782 -15042752.326 -11531425.677 10 0 60403 9000.00000 0 -17952869.426 -15951917.341 -8638204.974 10 0 60403 9900.00000 0 -18651283.321 -16516668.732 -5577443.897 10 0 60403 10800.00000 0 -19120854.162 -16755256.118 -2408596.355 10 0 60403 11700.00000 0 -19313887.844 -16697559.798 806894.999 10 0 60403 12600.00000 0 -19191447.041 -16383608.652 4006785.321 10 0 60403 13500.00000 0 -18725128.980 -15861691.920 7129221.984 10 0 60403 14400.00000 0 -17898415.617 -15186145.804 10113924.532 10 0 60403 15300.00000 0 -16707541.409 -14414908.527 12903328.663 10 0 60403 16200.00000 0 -15161843.872 -13606946.205 15443673.893 10 0 60403 17100.00000 0 -13283583.215 -12819656.448 17686015.992 10 0 60403 18000.00000 0 -11107238.844 -12106356.829 19587146.911 10 0 60403 18900.00000 0 -8678311.404 -11513961.386 21110406.751 10 0 60403 19800.00000 0 -6051678.707 -11080940.319 22226374.259 10 0 60403 20700.00000 0 -3289571.549 -10835646.459 22913424.256 10 0 60403 21600.00000 0 -459250.461 -10795077.196 23158142.525 10 0 60403 22500.00000 0 2369523.653 -10964123.170 22955590.711 10 0 60403 23400.00000 0 5127123.572 -11335335.530 22309415.906 10 0 60403 24300.00000 0 7746688.631 -11889222.825 21231801.905 10 0 60403 25200.00000 0 10166649.966 -12595067.205 19743261.342 10 0 60403 26100.00000 0 12333045.315 -13412228.428 17872270.461 10 0 60403 27000.00000 0 14201528.257 -14291883.995 15654750.908 10 0 60403 27900.00000 0 15738988.386 -15179135.235 13133405.652 10 0 60403 28800.00000 0 16924714.034 -16015393.272 10356919.134 10 0 60403 29700.00000 0 17751047.449 -16740946.143 7379034.647 10 0 60403 30600.00000 0 18223503.011 -17297599.573 4257524.913 10 0 60403 31500.00000 0 18360341.354 -17631279.564 1053074.694 10 0 60403 32400.00000 0 18191615.412 -17694485.321 -2171903.217 10 0 60403 33300.00000 0 17757727.101 -17448486.349 -5354495.115 10 0 60403 34200.00000 0 17107554.848 -16865167.573 -8432531.349 10 0 60403 35100.00000 0 16296231.230 -15928440.859 -11345822.963 10 0 60403 36000.00000 0 15382665.748 -14635159.596 -14037363.482 10 0 60403 36900.00000 0 14426919.351 -12995494.445 -16454469.701 10 0 60403 37800.00000 0 13487544.229 -11032751.709 -18549836.636 10 0 60403 38700.00000 0 12619004.077 -8782640.157 -20282483.663 10 0 60403 39600.00000 0 11869286.612 -6292016.318 -21618571.419 10 0 60403 40500.00000 0 11277811.529 -3617160.978 -22532072.193 10 0 60403 41400.00000 0 10873723.966 -821659.963 -23005280.018 10 0 60403 42300.00000 0 10674646.363 2026020.633 -23029150.459 10 0 60403 43200.00000 0 10685941.321 4855161.798 -22603464.063 10 0 60403 44100.00000 0 10900515.609 7595510.248 -21736811.395 10 0 60403 45000.00000 0 11299171.815 10179973.668 -20446401.497 10 0 60403 45900.00000 0 11851490.490 12547179.591 -18757699.339 10 0 60403 46800.00000 0 12517202.916 14643791.385 -16703901.346 10 0 60403 47700.00000 0 13247993.851 16426485.864 -14325261.253 10 0 60403 48600.00000 0 13989655.708 17863511.960 -11668281.433 10 0 60403 49500.00000 0 14684501.218 18935768.167 -8784787.199 10 0 60403 50400.00000 0 15273931.340 19637357.047 -5730903.662 10 0 60403 51300.00000 0 15701049.419 19975597.319 -2565956.192 10 0 60403 52200.00000 0 15913211.405 19970496.722 648683.451 10 0 60403 53100.00000 0 15864405.411 19653711.196 3850782.632 10 0 60403 54000.00000 0 15517361.742 19067036.905 6978442.308 10 0 60403 54900.00000 0 14845306.273 18260500.408 9971278.163 10 0 60403 55800.00000 0 13833285.303 17290128.270 12771566.792 10 0 60403 56700.00000 0 12479007.894 16215489.790 15325336.575 10 0 60403 57600.00000 0 10793171.588 15097115.103 17583384.236 10 0 60403 58500.00000 0 8799258.372 13993895.288 19502199.715 10 0 60403 59400.00000 0 6532809.122 12960571.272 21044783.817 10 0 60403 60300.00000 0 4040205.519 12045414.247 22181345.000 10 0 60403 61200.00000 0 1377008.075 11288192.370 22889863.635 10 0 60403 62100.00000 0 -1394083.518 10718506.840 23156514.119 10 0 60403 63000.00000 0 -4205566.406 10354565.653 22975937.312 10 0 60403 63900.00000 0 -6987673.649 10202445.848 22351357.874 10 0 60403 64800.00000 0 -9671014.570 10255875.588 21294543.331 10 0 60403 65700.00000 0 -12189210.020 10496546.515 19825604.021 10 0 60403 66600.00000 0 -14481415.591 10894945.399 17972635.515 10 0 60403 67500.00000 0 -16494629.508 11411672.734 15771207.788 10 0 60403 68400.00000 0 -18185689.740 11999195.649 13263708.098 10 0 60403 69300.00000 0 -19522876.611 12603963.915 10498547.533 10 0 60403 70200.00000 0 -20487052.684 13168801.925 7529244.083 10 0 60403 71100.00000 0 -21072290.280 13635476.900 4413398.041 10 0 60403 72000.00000 0 -21285957.971 13947334.995 1211578.451 10 0 60403 72900.00000 0 -21148260.172 14051892.861 -2013858.190 10 0 60403 73800.00000 0 -20691247.214 13903273.029 -5199993.528 10 0 60403 74700.00000 0 -19957336.341 13464377.110 -8284592.089 10 0 60403 75600.00000 0 -18997405.543 12708701.392 -11207338.965 10 0 60403 76500.00000 0 -17868541.128 11621714.283 -13911043.949 10 0 60403 77400.00000 0 -16631535.531 10201733.807 -16342785.919 10 0 60403 78300.00000 0 -15348243.070 8460264.972 -18454972.554 10 0 60403 79200.00000 0 -14078907.795 6421780.389 -20206292.318 10 0 60403 80100.00000 0 -12879578.900 4122951.903 -21562538.135 10 0 60403 81000.00000 0 -11799725.136 1611364.963 -22497285.330 10 0 60403 81900.00000 0 -10880150.744 -1056230.001 -22992409.858 10 0 60403 82800.00000 0 -10151301.889 -3816054.902 -23038436.621 10 0 60403 83700.00000 0 -9632035.174 -6599739.145 -22634711.659 10 0 60403 84600.00000 0 -9328899.368 -9336949.245 -21789395.910 10 0 60403 85500.00000 0 -9235958.948 -11958101.650 -20519282.228 10 0 60404 0.00000 0 -9335164.509 -14397044.337 -18849441.196 10 0 60404 900.00000 0 -9597251.621 -16593596.255 -16812703.684 10 0 60404 1800.00000 0 -9983126.979 -18495835.875 -14448994.632 10 0 60404 2700.00000 0 -10445680.526 -20062049.001 -11804530.022 10 0 60404 3600.00000 0 -10931944.334 -21262253.345 -8930896.638 10 0 60404 4500.00000 0 -11385505.040 -22079240.321 -5884033.240 10 0 60404 5400.00000 0 -11749066.644 -22509093.559 -2723134.291 10 0 60404 6300.00000 0 -11967054.924 -22561165.968 490501.758 10 0 60404 7200.00000 0 -11988153.811 -22257519.712 3694656.944 10 0 60404 8100.00000 0 -11767667.680 -21631855.602 6827388.340 10 0 60404 9000.00000 0 -11269611.455 -20727979.165 9828210.329 10 0 60404 9900.00000 0 -10468442.248 -19597869.193 12639242.992 10 0 60404 10800.00000 0 -9350361.447 -18299430.293 15206306.118 10 0 60404 11700.00000 0 -7914133.999 -16894023.168 17479939.839 10 0 60404 12600.00000 0 -6171391.398 -15443874.719 19416334.360 10 0 60404 13500.00000 0 -4146405.804 -14009474.353 20978153.220 10 0 60404 14400.00000 0 -1875343.865 -12647062.894 22135236.318 10 0 60404 15300.00000 0 594970.351 -11406316.483 22865170.957 10 0 60404 16200.00000 0 3208734.399 -10328319.803 23153721.162 10 0 60404 17100.00000 0 5903221.952 -9443911.351 22995107.660 10 0 60404 18000.00000 0 8611130.987 -8772468.688 22392132.967 10 0 60404 18900.00000 0 11263131.920 -8321184.046 21356148.291 10 0 60404 19800.00000 0 13790513.345 -8084861.165 19906861.291 10 0 60404 20700.00000 0 16127818.360 -8046243.206 18071986.166 10 0 60404 21600.00000 0 18215363.912 -8176860.055 15886740.180 10 0 60404 22500.00000 0 20001539.375 -8438361.787 13393193.483 10 0 60404 23400.00000 0 21444788.463 -8784284.683 10639482.046 10 0 60404 24300.00000 0 22515190.733 -9162177.503 7678896.386 10 0 60404 25200.00000 0 23195574.661 -9515999.807 4568861.820 10 0 60404 26100.00000 0 23482113.273 -9788691.602 1369828.780 10 0 60404 27000.00000 0 23384374.750 -9924805.193 -1855905.690 10 0 60404 27900.00000 0 22924823.484 -9873086.329 -5045421.909 10 0 60404 28800.00000 0 22137790.691 -9588892.891 -8136421.934 10 0 60404 29700.00000 0 21067956.786 -9036345.479 -11068468.180 10 0 60404 30600.00000 0 19768409.295 -8190115.240 -13784189.800 10 0 60404 31500.00000 0 18298358.899 -7036769.581 -16230430.591 10 0 60404 32400.00000 0 16720611.477 -5575615.489 -18359313.435 10 0 60404 33300.00000 0 15098904.893 -3819001.980 -20129198.102 10 0 60404 34200.00000 0 13495225.273 -1792066.932 -21505511.680 10 0 60404 35100.00000 0 11967218.236 468062.205 -22461434.049 10 0 60404 36000.00000 0 10565806.206 2913580.440 -22978424.244 10 0 60404 36900.00000 0 9333113.482 5487774.372 -23046577.295 10 0 60404 37800.00000 0 8300786.918 8127173.122 -22664805.151 10 0 60404 38700.00000 0 7488782.406 10763989.566 -21840839.182 10 0 60404 39600.00000 0 6904666.823 13328748.202 -20591055.756 10 0 60404 40500.00000 0 6543462.496 15752988.586 -18940130.090 10 0 60404 41400.00000 0 6388037.819 17971930.607 -16920527.122 10 0 60404 42300.00000 0 6410024.216 19926990.144 -14571841.404 10 0 60404 43200.00000 0 6571217.367 21568040.714 -11940000.863 10 0 60404 44100.00000 0 6825400.391 22855328.101 -9076351.736 10 0 60404 45000.00000 0 7120509.293 23760960.141 -6036644.087 10 0 60404 45900.00000 0 7401047.218 24269912.169 -2879938.814 10 0 60404 46800.00000 0 7610644.323 24380509.239 332541.840 10 0 60404 47700.00000 0 7694654.816 24104368.171 3538597.664 10 0 60404 48600.00000 0 7602681.991 23465804.904 6676245.008 10 0 60404 49500.00000 0 7290925.832 22500734.540 9684900.138 10 0 60404 50400.00000 0 6724255.812 21255111.951 12506529.718 10 0 60404 51300.00000 0 5877923.356 19782979.196 15086747.934 10 0 60404 52200.00000 0 4738843.588 18144201.379 17375841.122 10 0 60404 53100.00000 0 3306393.746 16401984.691 19329702.350 10 0 60404 54000.00000 0 1592695.360 14620278.561 20910660.240 10 0 60404 54900.00000 0 -377631.968 12861167.987 22088188.206 10 0 60404 55800.00000 0 -2568236.120 11182362.194 22839482.226 10 0 60404 56700.00000 0 -4932287.620 9634881.655 23149897.337 10 0 60404 57600.00000 0 -7414175.089 8261037.483 23013235.079 10 0 60404 58500.00000 0 -9951573.940 7092785.657 22431876.285 10 0 60404 59400.00000 0 -12477806.082 6150523.646 21416755.780 10 0 60404 60300.00000 0 -14924396.218 5442379.467 19987177.922 10 0 60404 61200.00000 0 -17223721.663 4964023.577 18170474.339 10 0 60404 62100.00000 0 -19311647.939 4699012.881 16001507.844 10 0 60404 63000.00000 0 -21130041.928 4619654.368 13522029.256 10 0 60404 63900.00000 0 -22629058.176 4688354.316 10779896.777 10 0 60404 64800.00000 0 -23769102.224 4859398.372 7828170.504 10 0 60404 65700.00000 0 -24522387.220 5081089.150 4724097.605 10 0 60404 66600.00000 0 -24874016.216 5298152.035 1528006.604 10 0 60404 67500.00000 0 -24822541.977 5454307.510 -1697868.248 10 0 60404 68400.00000 0 -24379977.986 5494900.145 -4890609.281 10 0 60404 69300.00000 0 -23571257.720 5369470.907 -7987859.361 10 0 60404 70200.00000 0 -22433163.107 5034161.009 -10929061.410 10 0 60404 71100.00000 0 -21012766.347 4453842.070 -13656666.961 10 0 60404 72000.00000 0 -19365450.751 3603878.744 -16117287.520 10 0 60404 72900.00000 0 -17552594.853 2471445.693 -18262763.653 10 0 60404 73800.00000 0 -15639019.050 1056340.116 -20051128.502 10 0 60404 74700.00000 0 -13690304.412 -628746.928 -21447444.920 10 0 60404 75600.00000 0 -11770098.807 -2558513.424 -22424498.436 10 0 60404 76500.00000 0 -9937525.794 -4695872.365 -22963331.726 10 0 60404 77400.00000 0 -8244806.825 -6993285.879 -23053610.003 10 0 60404 78300.00000 0 -6735197.556 -9394550.656 -22693810.710 10 0 60404 79200.00000 0 -5441324.863 -11836958.514 -21891234.817 10 0 60404 80100.00000 0 -4383993.374 -14253739.993 -20661841.014 10 0 60404 81000.00000 0 -3571509.633 -16576687.225 -19029907.830 10 0 60404 81900.00000 0 -2999549.461 -18738845.180 -17027532.244 10 0 60404 82800.00000 0 -2651570.692 -20677158.069 -14693976.654 10 0 60404 83700.00000 0 -2499750.226 -22334960.305 -12074878.902 10 0 60404 84600.00000 0 -2506402.268 -23664208.689 -9221342.584 10 0 60404 85500.00000 0 -2625814.622 -24627363.981 -6188926.932 10 0 60405 0.00000 0 -2806422.842 -25198845.369 -3036557.421 10 0 60405 900.00000 0 -2993228.607 -25365999.901 174622.645 10 0 60405 1800.00000 0 -3130358.940 -25129548.565 3382432.711 10 0 60405 2700.00000 0 -3163658.385 -24503494.310 6524850.632 10 0 60405 3600.00000 0 -3043205.182 -23514497.579 9541196.810 10 0 60405 4500.00000 0 -2725646.685 -22200747.910 12373286.799 10 0 60405 5400.00000 0 -2176257.297 -20610379.972 14966531.484 10 0 60405 6300.00000 0 -1370634.039 -18799500.549 17270965.670 10 0 60405 7200.00000 0 -295960.044 -16829908.290 19242187.446 10 0 60405 8100.00000 0 1048216.059 -14766599.868 20842192.503 10 0 60405 9000.00000 0 2649717.276 -12675164.286 22040089.524 10 0 60405 9900.00000 0 4484003.542 -10619171.241 22812684.642 10 0 60405 10800.00000 0 6514955.716 -8657659.389 23144925.061 10 0 60405 11700.00000 0 8696148.095 -6842826.291 23030193.977 10 0 60405 12600.00000 0 10972559.602 -5218013.895 22470451.049 10 0 60405 13500.00000 0 13282656.025 -3816071.740 21476214.911 10 0 60405 14400.00000 0 15560760.409 -2658165.214 20066386.496 10 0 60405 15300.00000 0 17739616.336 -1753078.612 18267914.422 10 0 60405 16200.00000 0 19753040.239 -1097042.923 16115306.300 10 0 60405 17100.00000 0 21538554.185 -674097.050 13649992.524 10 0 60405 18000.00000 0 23039890.138 -456969.190 10919552.080 10 0 60405 18900.00000 0 24209260.875 -408443.379 7976812.814 10 0 60405 19800.00000 0 25009301.183 -483155.383 4878841.539 10 0 60405 20700.00000 0 25414595.807 -629743.486 1685842.304 10 0 60405 21600.00000 0 25412727.202 -793263.699 -1540016.307 10 0 60405 22500.00000 0 25004796.015 -917766.776 -4735821.722 10 0 60405 23400.00000 0 24205389.447 -948926.420 -7839160.811 10 0 60405 24300.00000 0 23041996.377 -836604.990 -10789360.175 10 0 60405 25200.00000 0 21553892.156 -537244.943 -13528696.786 10 0 60405 26100.00000 0 19790539.223 -15981.249 -16003552.716 10 0 60405 27000.00000 0 17809571.090 751618.209 -18165488.807 10 0 60405 27900.00000 0 15674445.547 1778261.145 -19972213.906 10 0 60405 28800.00000 0 13451867.559 3064145.607 -21388428.678 10 0 60405 29700.00000 0 11209092.251 4596716.065 -22386526.064 10 0 60405 30600.00000 0 9011223.404 6350972.255 -22947133.861 10 0 60405 31500.00000 0 6918622.701 8290317.965 -23059488.653 10 0 60405 32400.00000 0 4984539.624 10367913.539 -22721634.236 10 0 60405 33300.00000 0 3253061.762 12528474.097 -21940441.699 10 0 60405 34200.00000 0 1757470.891 14710436.471 -20731452.214 10 0 60405 35100.00000 0 519072.159 16848402.318 -19118547.412 10 0 60405 36000.00000 0 -453457.057 18875753.567 -17133455.724 10 0 60405 36900.00000 0 -1164174.527 20727329.498 -14815106.429 10 0 60405 37800.00000 0 -1629436.022 22342052.834 -12208845.950 10 0 60405 38700.00000 0 -1876935.956 23665395.077 -9365533.536 10 0 60405 39600.00000 0 -1944269.979 24651578.751 -6340535.541 10 0 60405 40500.00000 0 -1877083.387 25265425.962 -3192639.074 10 0 60405 41400.00000 0 -1726886.070 25483778.067 17093.015 10 0 60405 42300.00000 0 -1548627.938 25296429.552 3226503.257 10 0 60405 43200.00000 0 -1398137.924 24706539.710 6373534.037 10 0 60405 44100.00000 0 -1329534.540 23730507.426 9397413.032 10 0 60405 45000.00000 0 -1392716.286 22397316.412 12239807.836 10 0 60405 45900.00000 0 -1631036.204 20747379.722 14845929.159 10 0 60405 46800.00000 0 -2079256.705 18830932.409 17165563.324 10 0 60405 47700.00000 0 -2761868.918 16706039.111 19154016.356 10 0 60405 48600.00000 0 -3691845.704 14436298.414 20772953.767 10 0 60405 49500.00000 0 -4869879.806 12088337.553 21991122.039 10 0 60405 50400.00000 0 -6284139.038 9729199.122 22784939.708 10 0 60405 51300.00000 0 -7910549.689 7423725.475 23138948.060 10 0 60405 52200.00000 0 -9713598.195 5232046.520 23046113.438 10 0 60405 53100.00000 0 -11647620.327 3207272.622 22507975.343 10 0 60405 54000.00000 0 -13658527.453 1393486.293 21534636.675 10 0 60405 54900.00000 0 -15685901.548 -175885.226 20144594.808 10 0 60405 55800.00000 0 -17665375.162 -1479249.318 18364414.602 10 0 60405 56700.00000 0 -19531200.251 -2507529.824 16228247.099 10 0 60405 57600.00000 0 -21218901.087 -3264321.884 13777200.325 10 0 60405 58500.00000 0 -22667901.808 -3765511.663 11058571.603 10 0 60405 59400.00000 0 -23824019.016 -4038375.103 8124953.647 10 0 60405 60300.00000 0 -24641714.139 -4120191.729 5033229.709 10 0 60405 61200.00000 0 -25086009.211 -4056430.437 1843475.932 10 0 60405 62100.00000 0 -25133982.892 -3898582.977 -1382208.341 10 0 60405 63000.00000 0 -24775780.698 -3701736.703 -4580919.264 10 0 60405 63900.00000 0 -24015093.610 -3521990.261 -7690191.345 10 0 60405 64800.00000 0 -22869081.942 -3413823.473 -10649238.434 10 0 60405 65700.00000 0 -21367745.225 -3427535.523 -13400166.374 10 0 60405 66600.00000 0 -19552763.111 -3606863.117 -15889131.019 10 0 60405 67500.00000 0 -17475855.454 -3986882.923 -18067416.386 10 0 60405 68400.00000 0 -15196730.902 -4592290.354 -19892409.506 10 0 60405 69300.00000 0 -12780711.414 -5436130.410 -21328450.812 10 0 60405 70200.00000 0 -10296134.185 -6519036.420 -22347542.020 10 0 60405 71100.00000 0 -7811641.987 -7829010.247 -22929896.792 10 0 60405 72000.00000 0 -5393477.447 -9341753.735 -23064323.194 10 0 60405 72900.00000 0 -3102896.132 -11021537.152 -22748430.930 10 0 60405 73800.00000 0 -993807.527 -12822567.058 -21988660.258 10 0 60405 74700.00000 0 889257.360 -14690794.590 -20800133.476 10 0 60405 75600.00000 0 2512767.791 -16566086.396 -19206333.627 10 0 60405 76500.00000 0 3855338.640 -18384665.340 -17238618.666 10 0 60405 77400.00000 0 4908354.163 -20081717.009 -14935582.636 10 0 60405 78300.00000 0 5676047.659 -21594051.631 -12342278.302 10 0 60405 79200.00000 0 6175037.622 -22862709.368 -9509318.250 10 0 60405 80100.00000 0 6433343.888 -23835399.982 -6491873.584 10 0 60405 81000.00000 0 6488928.940 -24468675.613 -3348590.957 10 0 60405 81900.00000 0 6387828.987 -24729747.225 -140449.817 10 0 60405 82800.00000 0 6181955.996 -24597870.685 3070417.541 10 0 60405 83700.00000 0 5926664.829 -24065246.799 6221920.374 10 0 60405 84600.00000 0 5678188.561 -23137399.991 9253195.925 10 0 60405 85500.00000 0 5491049.699 -21833021.876 12105766.076 10 0 60406 0.00000 0 5415555.226 -20183288.019 14724643.298 10 0 60406 900.00000 0 5495479.213 -18230676.288 17059367.947 10 0 60406 1800.00000 0 5766028.675 -16027338.375 19064955.622 10 0 60406 2700.00000 0 6252176.190 -13633088.444 20702743.331 10 0 60406 3600.00000 0 6967427.998 -11113092.941 21941116.780 10 0 60406 4500.00000 0 7913078.493 -8535354.319 22756108.062 10 0 60406 5400.00000 0 9077982.481 -5968090.356 23131853.392 10 0 60406 6300.00000 0 10438855.907 -3477114.682 23060902.810 10 0 60406 7200.00000 0 11961094.522 -1123324.254 22544375.909 10 0 60406 8100.00000 0 13600079.127 1039604.566 21591959.831 10 0 60406 9000.00000 0 15302916.241 2967217.607 20221748.095 10 0 60406 9900.00000 0 17010544.992 4625900.054 18459921.255 10 0 60406 10800.00000 0 18660125.532 5994042.109 16340272.973 10 0 60406 11700.00000 0 20187611.924 7062703.989 13903587.844 10 0 60406 12600.00000 0 21530403.709 7835751.144 11196880.174 10 0 60406 13500.00000 0 22629965.953 8329452.379 8272505.910 10 0 60406 14400.00000 0 23434307.552 8571555.843 5187162.800 10 0 60406 15300.00000 0 23900212.266 8599880.101 2000796.848 10 0 60406 16200.00000 0 23995126.284 8460478.451 -1224564.328 10 0 60406 17100.00000 0 23698619.794 8205453.520 -4426028.293 10 0 60406 18000.00000 0 23003357.570 7890514.915 -7541079.975 10 0 60406 18900.00000 0 21915534.293 7572384.620 -10508823.277 10 0 60406 19800.00000 0 20454753.277 7306162.141 -13271195.642 10 0 60406 20700.00000 0 18653351.404 7142763.799 -15774129.284 10 0 60406 21600.00000 0 16555197.317 7126547.795 -17968633.796 10 0 60406 22500.00000 0 14214012.960 7293228.794 -19811776.578 10 0 60406 23400.00000 0 11691289.538 7668173.230 -21267539.816 10 0 60406 24300.00000 0 9053886.608 8265149.789 -22307535.787 10 0 60406 25200.00000 0 6371416.673 9085589.514 -22911565.583 10 0 60406 26100.00000 0 3713526.734 10118387.539 -23068010.092 10 0 60406 27000.00000 0 1147192.278 11340254.694 -22774045.977 10 0 60406 27900.00000 0 -1265861.998 12716603.317 -22035683.406 10 0 60406 28800.00000 0 -3471506.378 14202928.449 -20867626.166 10 0 60406 29700.00000 0 -5425217.769 15746624.413 -19292958.694 10 0 60406 30600.00000 0 -7093676.154 17289158.383 -17342668.049 10 0 60406 31500.00000 0 -8455881.449 18768507.630 -15055012.232 10 0 60406 32400.00000 0 -9503747.247 20121756.526 -12474749.190 10 0 60406 33300.00000 0 -10242150.313 21287743.182 -9652243.359 10 0 60406 34200.00000 0 -10688437.801 22209644.246 -6642468.822 10 0 60406 35100.00000 0 -10871416.874 22837389.687 -3503929.738 10 0 60406 36000.00000 0 -10829872.838 23129807.312 -297519.893 10 0 60406 36900.00000 0 -10610681.099 23056408.600 2914656.047 10 0 60406 37800.00000 0 -10266594.570 22598743.042 6070476.838 10 0 60406 38700.00000 0 -9853800.863 21751266.329 9108992.063 10 0 60406 39600.00000 0 -9429352.288 20521688.107 11971580.765 10 0 60406 40500.00000 0 -9048576.155 18930786.380 14603060.568 10 0 60406 41400.00000 0 -8762572.895 17011697.339 16952727.886 10 0 60406 42300.00000 0 -8615905.293 14808710.461 18975311.329 10 0 60406 43200.00000 0 -8644573.914 12375618.418 20631822.274 10 0 60406 44100.00000 0 -8874361.816 9773688.882 21890288.387 10 0 60406 45000.00000 0 -9319616.656 7069340.206 22726357.845 10 0 60406 45900.00000 0 -9982520.591 4331614.556 23123764.043 10 0 60406 46800.00000 0 -10852878.889 1629550.056 23074642.609 10 0 60406 47700.00000 0 -11908437.340 -970442.279 22579694.685 10 0 60406 48600.00000 0 -13115717.363 -3407091.053 21648192.604 10 0 60406 49500.00000 0 -14431336.732 -5626564.603 20297826.421 10 0 60406 50400.00000 0 -15803763.926 -7584464.817 18554392.174 10 0 60406 51300.00000 0 -17175435.985 -9247432.530 16451325.342 10 0 60406 52200.00000 0 -18485154.188 -10594297.489 14029085.683 10 0 60406 53100.00000 0 -19670659.448 -11616723.933 11334402.546 10 0 60406 54000.00000 0 -20671280.736 -12319323.272 8419392.680 10 0 60406 54900.00000 0 -21430545.565 -12719227.277 5340565.498 10 0 60406 55800.00000 0 -21898641.826 -12845137.819 2157733.706 10 0 60406 56700.00000 0 -22034625.371 -12735891.622 -1067150.221 10 0 60406 57600.00000 0 -21808277.484 -12438599.583 -4271208.853 10 0 60406 58500.00000 0 -21201530.524 -12006439.074 -7391881.262 10 0 60406 59400.00000 0 -20209398.024 -11496193.315 -10368165.172 10 0 60406 60300.00000 0 -18840366.585 -10965643.534 -13141833.376 10 0 60406 61200.00000 0 -17116230.183 -10470926.653 -15658598.080 10 0 60406 62100.00000 0 -15071371.713 -10063973.236 -17869197.846 10 0 60406 63000.00000 0 -12751520.831 -9790137.130 -19730383.474 10 0 60406 63900.00000 0 -10212040.096 -9686120.070 -21205781.452 10 0 60406 64800.00000 0 -7515811.988 -9778281.449 -22266616.570 10 0 60406 65700.00000 0 -4730816.659 -10081406.509 -22892278.653 10 0 60406 66600.00000 0 -1927503.582 -10597985.965 -23070722.027 10 0 60406 67500.00000 0 823931.280 -11318037.512 -22798690.297 10 0 60406 68400.00000 0 3456247.542 -12219476.032 -22081762.921 10 0 60406 69300.00000 0 5907727.899 -13269015.380 -20934224.070 10 0 60406 70200.00000 0 8124503.771 -14423561.782 -19378758.038 10 0 60406 71100.00000 0 10062542.780 -15632037.917 -17445979.105 10 0 60406 72000.00000 0 11689216.797 -16837558.617 -15173807.066 10 0 60406 72900.00000 0 12984387.631 -17979864.585 -12606702.635 10 0 60406 73800.00000 0 13940968.352 -18997910.209 -9794779.483 10 0 60406 74700.00000 0 14564940.521 -19832495.614 -6792811.894 10 0 60406 75600.00000 0 14874830.641 -20428832.085 -3659158.641 10 0 60406 76500.00000 0 14900671.619 -20738933.487 -454624.901 10 0 60406 77400.00000 0 14682496.266 -20723734.308 2758715.237 10 0 60406 78300.00000 0 14268428.811 -20354847.042 5918712.904 10 0 60406 79200.00000 0 13712456.442 -19615887.059 8964332.759 10 0 60406 80100.00000 0 13071975.336 -18503311.360 11836813.555 10 0 60406 81000.00000 0 12405214.186 -17026737.767 14480780.158 10 0 60406 81900.00000 0 11768642.380 -15208732.373 16845287.553 10 0 60406 82800.00000 0 11214470.050 -13084074.561 18884778.864 10 0 60406 83700.00000 0 10788342.771 -10698529.865 20559941.272 10 0 60406 84600.00000 0 10527325.493 -8107180.402 21838445.515 10 0 60406 85500.00000 0 10458258.343 -5372380.201 22695556.642 99